This demonstration page uses our WeatherBlox Daily Observations layout. Learn more.

Left ArrowRight Arrow

41.55636, -103.73856

Hourly Observations for May 18, 2022

Temp ( °F °C ) Dew Point ( °F °C ) Humidity (%) Winds ( mph kmh ) Pressure ( in mb ) Visibility ( mi km ) Precip ( " mm )
12:58 am 00:58 Clear 51 10.7 46 7.9 83 83 SW 7 11 29.89 1012 10 16 0.00 0.00
1:58 am 01:58 Clear 51 10.6 46 7.8 83 83 WNW 5 7 29.88 1012 10 16 0.00 0.00
2:58 am 02:58 Clear 49 9.2 46 7.8 91 91 WSW 3 6 29.89 1012 10 16 0.00 0.00
3:58 am 03:58 Clear 48 8.8 46 7.6 92 92 SW 5 7 29.91 1013 10 16 0.00 0.00
4:58 am 04:58 Clear 50 9.9 46 7.8 87 87 ESE 9 15 29.90 1012 10 16 0.00 0.00
5:58 am 05:58 Sunny 50 9.8 43 6.1 78 78 SW 9 15 29.92 1013 10 16 0.00 0.00
6:58 am 06:58 Sunny 56 13.1 47 8.2 72 72 SSW 17 28 29.93 1014 10 16 0.00 0.00
7:58 am 07:58 Sunny 64 17.7 44 6.8 49 49 SW 16 26 29.93 1013 10 16 0.00 0.00
8:58 am 08:58 Sunny 69 20.6 41 5 36 36 WSW 16 26 29.90 1013 10 16 0.00 0.00
9:58 am 09:58 Sunny 71 21.8 34 0.9 25 25 W 14 22 29.91 1013 10 16 0.00 0.00
10:58 am 10:58 Sunny 74 23.6 31 -0.7 20 20 WNW 12 19 29.88 1012 10 16 0.00 0.00
11:58 am 11:58 Sunny 77 25 29 -1.8 17 17 NW 14 22 29.87 1011 10 16 0.00 0.00
12:58 pm 12:58 Sunny 77 24.9 34 1.1 21 21 NW 21 33 29.85 1011 10 16 0.00 0.00
1:58 pm 13:58 Sunny 78 25.3 32 0 19 19 NW 12 19 29.85 1011 10 16 0.00 0.00
2:58 pm 14:58 Sunny 78 25.8 20 -6.9 11 11 W 16 26 29.81 1010 10 16 0.00 0.00
3:58 pm 15:58 Sunny 79 26.1 24 -4.5 13 13 N 7 11 29.78 1009 10 16 0.00 0.00
4:58 pm 16:58 Sunny 78 25.8 27 -2.8 15 15 N 5 7 29.76 1008 10 16 0.00 0.00
5:58 pm 17:58 Sunny 78 25.7 25 -3.8 14 14 NNE 3 6 29.73 1007 10 16 0.00 0.00
6:58 pm 18:58 Sunny 74 23.5 35 1.8 24 24 ENE 6 9 29.70 1006 10 16 0.00 0.00
7:58 pm 19:58 Sunny 65 18.3 37 2.6 35 35 ESE 13 20 29.70 1006 10 16 0.00 0.00
8:58 pm 20:58 Clear 64 18 34 1.1 32 32 SE 16 26 29.70 1006 10 16 0.00 0.00
9:58 pm 21:58 Clear 64 18 31 -0.3 29 29 SSE 18 30 29.67 1005 10 16 0.00 0.00
10:58 pm 22:58 Clear 60 15.4 32 0 35 35 S 8 13 29.66 1005 10 16 0.00 0.00
11:58 pm 23:58 Mostly Cloudy 62 16.5 31 -0.3 32 32 SSW 17 28 29.62 1003 10 16 0.00 0.00

Powered by AerisWeather